Location: Sternwarte Stuttgart
(48.7670°N, 9.1830°E)
Time: 03:39:16
(UTC+01:00)

ISS - All Passes

Search period start: 17 December 2017 00:00
Search period end: 27 December 2017 00:00
Orbit: 402 x 406 km, 51.6° (Epoch: 17 December)

Date Brightness Start Highest point End Pass type
(mag) Time Alt. Az. Time Alt. Az. Time Alt. Az.
17 Dec - 11:21:37 10° SSW 11:24:36 33° SE 11:27:37 10° E daylight
17 Dec - 12:57:40 10° W 13:00:57 67° NNW 13:04:15 10° ENE daylight
17 Dec - 14:34:28 10° WNW 14:37:42 50° N 14:40:56 10° E daylight
17 Dec - 16:11:01 10° WNW 16:14:19 73° SSW 16:17:36 10° ESE daylight
17 Dec - 17:48:18 10° W 17:50:21 16° SW 17:52:24 10° S visible
18 Dec - 10:29:57 10° SSW 10:32:30 21° SE 10:35:02 10° E daylight
18 Dec - 12:05:21 10° WSW 12:08:39 90° N 12:11:57 10° ENE daylight
18 Dec - 13:42:06 10° WNW 13:45:20 48° N 13:48:33 10° ENE daylight
18 Dec - 15:18:44 10° WNW 15:22:02 79° NNE 15:25:20 10° ESE daylight
18 Dec - 16:55:30 10° W 16:58:17 25° SW 17:01:02 10° SSE daylight
19 Dec - 09:38:56 10° SSE 09:40:26 13° SE 09:41:57 10° ESE daylight
19 Dec - 11:13:07 10° SW 11:16:23 61° SSE 11:19:39 10° ENE daylight
19 Dec - 12:49:42 10° W 12:52:56 52° N 12:56:11 10° ENE daylight
19 Dec - 14:26:25 10° WNW 14:29:42 61° NNE 14:32:58 10° E daylight
19 Dec - 16:03:00 10° WNW 16:06:07 40° SSW 16:09:13 10° SE daylight
20 Dec - 10:21:04 10° SW 10:24:09 39° SSE 10:27:15 10° ENE daylight
20 Dec - 11:57:17 10° W 12:00:34 62° NNW 12:03:50 10° ENE daylight
20 Dec - 13:34:05 10° WNW 13:37:19 52° N 13:40:33 10° E daylight
20 Dec - 15:10:37 10° WNW 15:13:53 63° SSW 15:17:08 10° SE daylight
20 Dec - 16:48:14 10° WSW 16:49:50 13° SW 16:51:27 10° SSW daylight
21 Dec - 09:29:15 10° SSW 09:31:59 24° SE 09:34:43 10° E daylight
21 Dec - 11:04:54 10° WSW 11:08:12 81° NNW 11:11:31 10° ENE daylight
21 Dec - 12:41:41 10° WNW 12:44:54 48° N 12:48:07 10° ENE daylight
21 Dec - 14:18:16 10° WNW 14:21:35 88° NNE 14:24:53 10° ESE daylight
21 Dec - 15:55:10 10° W 15:57:45 21° SW 16:00:19 10° SSE daylight
22 Dec - 08:37:53 10° S 08:39:52 15° SE 08:41:50 10° E daylight
22 Dec - 10:12:36 10° WSW 10:15:52 71° SSE 10:19:10 10° ENE daylight
22 Dec - 11:49:15 10° W 11:52:29 50° N 11:55:43 10° ENE daylight
22 Dec - 13:25:56 10° WNW 13:29:13 66° NNE 13:32:30 10° E daylight
22 Dec - 15:02:33 10° W 15:05:35 34° SSW 15:08:35 10° SSE daylight
23 Dec - 09:20:26 10° SW 09:23:35 45° SSE 09:26:46 10° ENE daylight
23 Dec - 10:56:48 10° W 11:00:03 57° NNW 11:03:19 10° ENE daylight
23 Dec - 12:33:34 10° WNW 12:36:49 54° N 12:40:04 10° E daylight
23 Dec - 14:10:06 10° WNW 14:13:20 54° SSW 14:16:33 10° SE daylight
23 Dec - 15:48:21 10° WSW 15:49:13 11° SW 15:50:04 10° SSW daylight
24 Dec - 08:28:29 10° SSW 08:31:21 28° SE 08:34:15 10° E daylight
24 Dec - 10:04:22 10° WSW 10:07:39 73° NNW 10:10:57 10° ENE daylight
24 Dec - 11:41:09 10° WNW 11:44:22 49° N 11:47:35 10° E daylight
24 Dec - 13:17:43 10° WNW 13:21:01 82° SSW 13:24:18 10° ESE daylight
24 Dec - 14:54:47 10° W 14:57:06 18° SW 14:59:26 10° S daylight
25 Dec - 07:36:53 10° S 07:39:11 18° SE 07:41:30 10° E visible
25 Dec - 09:11:59 10° WSW 09:15:16 81° SSE 09:18:34 10° ENE daylight
25 Dec - 10:48:42 10° W 10:51:55 49° N 10:55:08 10° ENE daylight
25 Dec - 12:25:20 10° WNW 12:28:38 73° NNE 12:31:55 10° ESE daylight
25 Dec - 14:02:01 10° W 14:04:55 29° SW 14:07:49 10° SSE daylight
26 Dec - 06:46:18 10° SSE 06:47:04 11° SE 06:47:50 10° ESE visible
26 Dec - 08:19:43 10° SW 08:22:56 53° SSE 08:26:10 10° ENE daylight
26 Dec - 09:56:12 10° W 09:59:26 54° N 10:02:41 10° ENE daylight
26 Dec - 11:32:57 10° WNW 11:36:12 57° N 11:39:27 10° E daylight
26 Dec - 13:09:29 10° WNW 13:12:40 46° SSW 13:15:50 10° SE daylight
